This is the latest recevied weather packets stored in our database for station/object W4ZHA. If no packets are shown the sender has not sent any weather packets the latest 10 day(s).
| Time | Temp. | Humidity | Pressure | Rain* | Wind** | Luminosity | Snow |
|---|---|---|---|---|---|---|---|
| 1777904141 | 16.67° C | 60% | 1018.3 hPa | 0 mm | - | 61 W/m² | - |
| 1777903838 | 16.67° C | 60% | 1018.3 hPa | 0 mm | - | 98 W/m² | - |
| 1777903534 | 16.11° C | 59% | 1018.3 hPa | 0 mm | - | 76 W/m² | - |
| 1777903231 | 16.11° C | 61% | 1018.3 hPa | 0 mm | - | 58 W/m² | - |
| 1777902927 | 16.11° C | 61% | 1018.6 hPa | 0 mm | - | 72 W/m² | - |
| 1777902624 | 15.56° C | 61% | 1018.3 hPa | 0 mm | - | 52 W/m² | - |
| 1777902321 | 15.56° C | 63% | 1018.3 hPa | 0 mm | - | 95 W/m² | - |
| 1777902018 | 15° C | 66% | 1018.3 hPa | 0 mm | - | 53 W/m² | - |
| 1777901717 | 14.44° C | 66% | 1018.6 hPa | 0 mm | - | 60 W/m² | - |
| 1777901414 | 13.89° C | 66% | 1018.6 hPa | 0 mm | - | 43 W/m² | - |
| 1777901111 | 13.89° C | 66% | 1018.6 hPa | 0 mm | - | 40 W/m² | - |
| 1777900809 | 13.89° C | 68% | 1018.6 hPa | 0 mm | - | 46 W/m² | - |
| 1777900506 | 13.89° C | 67% | 1018.6 hPa | 0 mm | - | 121 W/m² | - |
| 1777900203 | 13.89° C | 68% | 1018.6 hPa | 0 mm | - | 82 W/m² | - |
| 1777899899 | 13.33° C | 67% | 1018.3 hPa | 0 mm | - | 59 W/m² | - |
| 1777899595 | 13.33° C | 67% | 1018.3 hPa | 0 mm | - | 39 W/m² | - |
| 1777899293 | 13.33° C | 69% | 1018.3 hPa | 0 mm | - | 36 W/m² | - |
| 1777898991 | 12.22° C | 68% | 1018.3 hPa | 0 mm | - | 35 W/m² | - |
| 1777898688 | 11.67° C | 74% | 1018.3 hPa | 0 mm | - | 32 W/m² | - |
| 1777898384 | 11.11° C | 77% | 1018.3 hPa | 0 mm | - | 43 W/m² | - |
| 1777898083 | 10.56° C | 82% | 1018.3 hPa | 0 mm | - | 59 W/m² | - |
| 1777897778 | 10.56° C | 87% | 1018.3 hPa | 0 mm | - | 29 W/m² | - |
| 1777897475 | 10° C | 92% | 1018.3 hPa | 0 mm | - | 27 W/m² | - |
| 1777897170 | 10° C | 96% | 1018.3 hPa | 0 mm | - | 26 W/m² | - |
| 1777896867 | 9.44° C | 97% | 1018.3 hPa | 0 mm | - | 26 W/m² | - |
* Rain latest hour (hover to see other rain measurements)
** Current wind speed in m/s (hover to see current wind gust speed)